Location: Greenwich
(51.4790°N, 0.0090°E)
Time: 05:52:08
(UTC+00:00)

ISS - Visible Passes

Search period start: 04 March 2024 00:00
Search period end: 14 March 2024 00:00
Orbit: 414 x 422 km, 51.6° (Epoch: 04 March)

Date Brightness Start Highest point End Pass type
(mag) Time Alt. Az. Time Alt. Az. Time Alt. Az.
04 Mar -0.8 03:36:46 15° E 03:36:46 15° E 03:37:27 10° E visible
04 Mar -3.0 05:09:42 29° WSW 05:10:39 36° SSW 05:13:48 10° SE visible
05 Mar -2.6 04:23:46 34° SSE 04:23:46 34° SSE 04:26:00 10° SE visible
05 Mar -1.6 05:57:10 10° WSW 05:58:55 13° SW 06:00:39 10° S visible
06 Mar -0.7 03:37:55 11° ESE 03:37:55 11° ESE 03:38:04 10° ESE visible
06 Mar -2.2 05:10:52 19° SW 05:11:04 19° SW 05:13:34 10° S visible
07 Mar -1.5 04:25:07 16° SSE 04:25:07 16° SSE 04:26:04 10° SSE visible
13 Mar -1.3 19:31:30 10° SSE 19:31:32 10° SSE 19:31:32 10° SSE visible
